Location: Arena
(42.5007°N, 9.4650°E)
Time: 10:08:15
(UTC+00:00)

ISS - Visible Passes

Search period start: 04 March 2021 00:00
Search period end: 14 March 2021 00:00
Orbit: 417 x 422 km, 51.6° (Epoch: 04 March)

Date Brightness Start Highest point End Pass type
(mag) Time Alt. Az. Time Alt. Az. Time Alt. Az.
04 Mar -0.4 03:09:46 11° NE 03:09:46 11° NE 03:09:55 10° NE visible
04 Mar -1.5 04:42:44 11° NW 04:45:03 19° N 04:47:31 10° NE visible
05 Mar -1.5 03:57:03 17° N 03:57:21 17° N 03:59:41 10° NE visible
06 Mar -0.6 03:11:24 12° NE 03:11:24 12° NE 03:11:57 10° NE visible
06 Mar -1.9 04:44:22 10° NW 04:47:16 26° NNE 04:50:10 10° ENE visible
07 Mar -1.7 03:58:44 19° N 03:59:36 21° NNE 04:02:17 10° ENE visible
08 Mar -0.8 03:13:10 16° NE 03:13:10 16° NE 03:14:22 10° ENE visible
08 Mar -3.0 04:46:08 11° NW 04:49:18 49° NNE 04:52:34 10° ESE visible
09 Mar -2.3 04:00:38 27° NNW 04:01:43 34° NNE 04:04:49 10° E visible
10 Mar -1.2 03:15:14 21° NE 03:15:14 21° NE 03:16:58 10° ENE visible
10 Mar -3.7 04:48:12 13° WNW 04:51:06 64° SW 04:54:25 10° SE visible
11 Mar -3.7 04:02:55 53° NW 04:03:36 78° NNE 04:06:58 10° ESE visible
12 Mar -1.5 03:17:47 24° E 03:17:47 24° E 03:19:20 10° ESE visible
12 Mar -2.4 04:50:48 14° W 04:52:39 22° SW 04:55:20 10° S visible
13 Mar -2.9 04:05:49 34° SSW 04:05:49 34° SSW 04:08:23 10° SSE visible
